Regional Weather Roundup
Issued by NWS

Home | Current Version | Previous Version | Text Only | Print | Product List | Glossary Off
Versions: 1 2 3 4 5 6 7 8 9 10 11 12 13 14 15 16 17 18 19 20 21 22 23 24 25 26 27 28 29 30 31 32 33 34 35 36 37 38 39 40 41 42 43 44 45 46 47 48 49 50

000
ASUS43 KLSX 191507
RWRMO

WEATHER SUMMARY FOR MISSOURI
NATIONAL WEATHER SERVICE SPRINGFIELD MO
1000 AM CDT SAT APR 19 2014

NOTE: "FAIR" INDICATES FEW OR NO CLOUDS BELOW 12,000 FEET WITH NO
       SIGNIFICANT WEATHER AND/OR OBSTRUCTIONS TO VISIBILITY.
       CURRENT SKY AND/OR WEATHER CONDITIONS ARE NOT AVAILABLE FOR
       CHILLICOTHE AND FARMINGTON.

MOZ001>031-035>038-043-044-053-054-191600-
...NORTHERN AND WESTERN MISSOURI...

CITY           SKY/WX    TMP DP  RH WIND       PRES   REMARKS
KANSAS CTY INT MOSUNNY   67  44  43 S15       30.15F
KANSAS C DTWN  MOSUNNY   68  45  43 S12       30.15F
LEE`S SUMMIT   MOSUNNY   65  45  48 S12       30.17F
ST JOSEPH      MOSUNNY   67  43  41 S12       30.14F
CHILLICOTHE      N/A     65  44  46 S10       30.19S
KIRKSVILLE     SUNNY     62  42  47 S20       30.22F

$$
MOZ066>068-077>081-088>096-101>105-191600-
...SOUTHWEST MISSOURI...

CITY           SKY/WX    TMP DP  RH WIND       PRES   REMARKS
SPRINGFIELD    SUNNY     65  47  52 S12       30.24S
JOPLIN         MOSUNNY   66  47  50 S12       30.21S

$$
MOZ032>034-039>042-045>050-055>058-069>072-191600-
...CENTRAL MISSOURI...

CITY           SKY/WX    TMP DP  RH WIND       PRES   REMARKS
COLUMBIA       SUNNY     66  44  45 S15       30.25F
JEFFERSON CITY SUNNY     64  45  49 SE10      30.25F
ROLLA          SUNNY     65  44  46 SE7       30.26S
SEDALIA        SUNNY     67  47  48 S12       30.22F
WHITEMAN AFB   SUNNY     65  45  48 S15       30.20F
OSAGE BEACH    SUNNY     64  41  42 SE12      30.26F

$$
MOZ051-052-059>065-191600-
...EAST CENTRAL MISSOURI...

CITY           SKY/WX    TMP DP  RH WIND       PRES   REMARKS
ST LOUIS INTL  MOSUNNY   62  41  46 CALM      30.30R
SPIRIT OF STL  SUNNY     62  42  47 E6        30.29S
ST CHARLES     SUNNY     59  41  51 SE3       30.29S

$$
MOZ072>076-082>087-097>100-106>115-191600-
...SOUTH CENTRAL AND SOUTHEAST MISSOURI...

CITY           SKY/WX    TMP DP  RH WIND       PRES   REMARKS
CAPE GIRARDEAU SUNNY     65  47  52 NE6       30.26R
FARMINGTON     SUNNY     63  45  51 E5        30.30S
POPLAR BLUFF   SUNNY     65  45  48 E7        30.25R
WEST PLAINS    SUNNY     64  42  44 E6        30.27F

$$



USA.gov is the U.S. government's official web portal to all federal, state and local government web resources and services.